DUCHIFAT-1

Last updated on Sun Jun 21 2026 00:03:20 GMT+0000 (Coordinated Universal Time)

1 40021U 14033M 26171.41075191 .00097960 00000+0 98362-3 0 9994 2 40021 98.0451 231.0257 0002464 112.8705 247.2812 15.65166086656250
UTC large
Height (km)
Speed (km/s)
/
Latitude / Longitude
Inclination (degrees)
Orbital Period (minutes)
Azimuth
Elevation
Range (km)
Doppler Factor

Next 0 passes for location: London (51.5072 / 0.1276)

No passes found over London.
DUCHIFAT-1